CW5920 Weather Reports


time (UTC)temp
F
wind
direction
speed
knots
gust
knots
rain 1hr
in
rain 24hr
in
rain mn
in
humidity
%
barometer
mb
20260831042016 87 158 4.3 9.6 0.00 0.00 0.00 48 1014.5
20260831040016 86 135 2.6 6.1 0.00 0.00 0.00 48 1014.5
20260831035016 86 135 1.7 4.3 0.00 0.00 0.00 48 1014.4
20260831034016 86 135 1.7 2.6 0.00 0.00 0.00 47 1014.2
20260831033016 87 135 0.9 2.6 0.00 0.00 0.00 45 1014.1
20260831032016 88 135 2.6 3.5 0.00 0.00 0.00 45 1014.1
20260831031015 88 158 0.9 2.6 0.00 0.00 0.00 44 1014.0
20260831030016 89 158 1.7 5.2 0.00 0.00 0.00 43 1013.9
20260831025016 89 135 2.6 4.3 0.00 0.00 0.00 43 1013.7
20260831024016 89 158 3.5 5.2 0.00 0.00 0.00 42 1013.6
20260831023016 89 135 2.6 5.2 0.00 0.00 0.00 42 1013.4
20260831022016 89 158 1.7 4.3 0.00 0.00 0.00 41 1013.3
20260831021016 90 158 0.9 2.6 0.00 0.00 0.00 40 1013.2
20260831020015 90 0.0 1.7 0.00 0.00 0.00 39 1013.0
20260831015016 91 0.0 0.9 0.00 0.00 0.00 38 1013.0
20260831014055 92 158 1.7 4.3 0.00 0.00 0.00 38 1012.6
20260831013016 92 158 1.7 4.3 0.00 0.00 0.00 37 1012.6
20260831012016 93 158 2.6 5.2 0.00 0.00 0.00 35 1012.6
20260831011016 93 158 2.6 7.0 0.00 0.00 0.00 35 1012.5
20260831010056 94 158 1.7 4.3 0.00 0.00 0.00 34 1012.5
20260831005015 95 158 2.6 5.2 0.00 0.00 0.00 34 1012.4
20260831004016 95 158 3.5 7.0 0.00 0.00 0.00 34 1012.5
20260831003016 96 135 2.6 4.3 0.00 0.00 0.00 33 1012.4
20260831002016 96 135 4.3 7.8 0.00 0.00 0.00 32 1012.5
20260831001036 96 135 5.2 8.7 0.00 0.00 0.00 32 1012.4
20260831000015 97 113 7.0 10.4 0.00 0.00 0.00 31 1012.6
20260830235015 97 135 6.1 9.6 0.00 0.00 0.00 31 1012.5
20260830234016 97 135 7.0 11.3 0.00 0.00 0.00 31 1012.6
20260830233016 98 135 7.8 13.9 0.00 0.00 0.00 32 1012.7
20260830232016 98 135 8.7 13.0 0.00 0.00 0.00 32 1012.7
20260830231016 98 135 7.0 13.0 0.00 0.00 0.00 32 1012.6
20260830230016 98 135 7.8 13.9 0.00 0.00 0.00 31 1012.7
20260830225036 98 113 7.8 13.0 0.00 0.00 0.00 31 1012.7
20260830224015 98 135 7.8 12.2 0.00 0.00 0.00 31 1012.8
20260830223016 99 135 7.8 13.9 0.00 0.00 0.00 30 1012.8
20260830222016 99 135 10.4 15.6 0.00 0.00 0.00 30 1012.9
20260830221035 100 135 6.1 9.6 0.00 0.00 0.00 28 1012.8
20260830220015 100 135 4.3 12.2 0.00 0.00 0.00 29 1012.9
20260830215035 100 113 8.7 13.9 0.00 0.00 0.00 28 1012.9
20260830214016 100 113 7.0 12.2 0.00 0.00 0.00 28 1013.0
20260830213015 100 113 7.0 12.2 0.00 0.00 0.00 26 1013.1
20260830212016 100 135 7.8 13.9 0.00 0.00 0.00 29 1013.0
20260830211015 100 135 5.2 7.8 0.00 0.00 0.00 30 1013.2
20260830210016 100 113 7.8 11.3 0.00 0.00 0.00 29 1013.4
20260830205015 101 113 7.8 11.3 0.00 0.00 0.00 30 1013.5
20260830204015 101 135 7.0 12.2 0.00 0.00 0.00 29 1013.7
20260830203016 102 158 5.2 12.2 0.00 0.00 0.00 29 1013.9
20260830202015 101 113 8.7 15.6 0.00 0.00 0.00 30 1014.0
20260830201016 102 135 7.8 14.8 0.00 0.00 0.00 30 1014.1
20260830200035 102 135 6.1 10.4 0.00 0.00 0.00 31 1014.2
20260830195015 101 135 6.1 11.3 0.00 0.00 0.00 31 1014.3
20260830194016 101 158 1.7 10.4 0.00 0.00 0.00 30 1014.4
20260830193015 101 158 3.5 12.2 0.00 0.00 0.00 31 1014.5
20260830192015 101 135 7.8 13.9 0.00 0.00 0.00 31 1014.7
20260830191036 100 113 4.3 10.4 0.00 0.00 0.00 31 1014.9
20260830190016 100 135 6.1 14.8 0.00 0.00 0.00 31 1014.9
20260830185016 100 135 9.6 17.4 0.00 0.00 0.00 32 1015.1
20260830184015 100 180 5.2 13.0 0.00 0.00 0.00 32 1015.2
20260830183015 100 135 6.1 10.4 0.00 0.00 0.00 33 1015.5
20260830182015 100 135 8.7 13.9 0.00 0.00 0.00 33 1015.5
20260830181036 99 158 6.1 11.3 0.00 0.00 0.00 34 1015.7
20260830180016 99 158 6.1 11.3 0.00 0.00 0.00 34 1015.8
20260830175016 99 135 7.0 12.2 0.00 0.00 0.00 35 1016.1
20260830174015 99 135 5.2 11.3 0.00 0.00 0.00 35 1016.1
20260830173015 98 158 6.1 13.0 0.00 0.00 0.00 35 1016.3
20260830172035 98 158 6.1 13.9 0.00 0.00 0.00 36 1016.5
20260830171015 97 135 9.6 15.6 0.00 0.00 0.00 35 1016.6
20260830170055 97 135 9.6 15.6 0.00 0.00 0.00 35 1016.6
20260830165016 96 158 4.3 11.3 0.00 0.00 0.00 38 1016.8
20260830164015 96 135 6.1 13.0 0.00 0.00 0.00 42 1016.9
20260830163015 95 158 4.3 12.2 0.00 0.00 0.00 43 1016.9
20260830162015 95 158 6.1 11.3 0.00 0.00 0.00 44 1017.1
20260830161015 95 158 4.3 10.4 0.00 0.00 0.00 45 1017.1
20260830160016 94 180 4.3 10.4 0.00 0.00 0.00 46 1017.0
20260830155015 93 158 7.0 12.2 0.00 0.00 0.00 47 1017.0
20260830154015 93 0.0 6.1 0.00 0.00 0.00 49 1017.1
20260830153015 92 158 2.6 9.6 0.00 0.00 0.00 50 1017.0
20260830152015 91 158 5.2 9.6 0.00 0.00 0.00 52 1016.9
20260830151015 90 0.0 2.6 0.00 0.00 0.00 55 1017.1
20260830150015 89 180 0.9 6.1 0.00 0.00 0.00 56 1016.9
20260830145015 89 158 2.6 9.6 0.00 0.00 0.00 57 1016.9
20260830144015 88 0.0 3.5 0.00 0.00 0.00 58 1017.0
20260830143015 88 0.0 2.6 0.00 0.00 0.00 60 1017.0
20260830142015 86 158 0.9 5.2 0.00 0.00 0.00 61 1016.8
20260830141015 85 0.0 3.5 0.00 0.00 0.00 63 1016.7
20260830140035 85 0.0 3.5 0.00 0.00 0.00 65 1016.8
20260830135015 84 0.0 1.7 0.00 0.00 0.00 67 1016.8
20260830134035 83 0.0 1.7 0.00 0.00 0.00 69 1016.7
20260830133036 82 0.0 1.7 0.00 0.00 0.00 72 1016.7
20260830132015 81 0.0 3.5 0.00 0.00 0.00 73 1016.5
20260830131015 81 0.0 1.7 0.00 0.00 0.00 75 1016.5
20260830130015 80 0.0 0.0 0.00 0.00 0.00 76 1016.4
20260830125016 79 0.0 4.3 0.00 0.00 0.00 77 1016.3
20260830124015 79 0.0 1.7 0.00 0.00 0.00 77 1016.2
20260830123015 79 0.0 0.9 0.00 0.00 0.00 77 1016.1
20260830122015 79 0.0 1.7 0.00 0.00 0.00 77 1015.9
20260830121017 79 0.0 0.9 0.00 0.00 0.00 76 1015.7
20260830120017 79 0.0 1.7 0.00 0.00 0.00 76 1015.6
20260830115037 79 180 0.9 6.1 0.00 0.00 0.00 75 1015.5
20260830114017 80 0.0 3.5 0.00 0.00 0.00 75 1015.5
20260830113037 80 158 1.7 6.1 0.00 0.00 0.00 74 1015.4
20260830112017 80 180 1.7 7.8 0.00 0.00 0.00 74 1015.3
20260830111037 80 158 1.7 7.8 0.00 0.00 0.00 73 1015.2
20260830110015 80 158 1.7 5.2 0.00 0.00 0.00 73 1015.1
20260830105017 80 158 2.6 7.0 0.00 0.00 0.00 72 1015.0
20260830104015 80 158 2.6 7.8 0.00 0.00 0.00 72 1015.0
20260830103057 81 158 1.7 7.8 0.00 0.00 0.00 71 1015.0
20260830102036 81 158 3.5 8.7 0.00 0.00 0.00 71 1014.9
20260830101017 81 158 1.7 7.0 0.00 0.00 0.00 70 1015.1
20260830100057 81 180 1.7 7.0 0.00 0.00 0.00 69 1015.0
20260830095017 81 158 2.6 8.7 0.00 0.00 0.00 69 1015.1
20260830094017 81 158 1.7 7.0 0.00 0.00 0.00 68 1015.0
20260830093037 81 158 1.7 7.0 0.00 0.00 0.00 68 1015.0
20260830092017 81 180 0.9 5.2 0.00 0.00 0.00 67 1015.1
20260830091037 82 158 1.7 6.1 0.00 0.00 0.00 66 1015.0
20260830090037 82 0.0 3.5 0.00 0.00 0.00 65 1015.0
20260830085016 82 158 0.9 5.2 0.00 0.00 0.00 65 1015.0
20260830084016 83 180 0.9 7.8 0.00 0.00 0.00 64 1014.9
20260830083016 83 158 1.7 7.0 0.00 0.00 0.00 63 1015.0
20260830082016 83 180 0.9 5.2 0.00 0.00 0.00 62 1015.0
20260830081016 83 158 2.6 9.6 0.00 0.00 0.00 62 1015.0
20260830080036 84 158 1.7 7.0 0.00 0.00 0.00 61 1015.1
20260830075016 84 158 1.7 7.0 0.00 0.00 0.00 60 1015.2
20260830074016 84 158 2.6 7.8 0.00 0.00 0.00 59 1015.2
20260830073016 85 158 2.6 10.4 0.00 0.00 0.00 58 1015.1
20260830072036 85 158 3.5 9.6 0.00 0.00 0.00 58 1015.2
20260830071016 85 158 5.2 12.2 0.00 0.00 0.00 57 1015.2
20260830070016 86 158 4.3 8.7 0.00 0.00 0.00 56 1015.4
20260830065036 86 158 3.5 9.6 0.00 0.00 0.00 56 1015.4
20260830064016 86 158 4.3 8.7 0.00 0.00 0.00 56 1015.4
20260830063016 86 158 4.3 8.7 0.00 0.00 0.00 55 1015.3
20260830062016 86 158 3.5 8.7 0.00 0.00 0.00 54 1015.4
20260830061016 86 158 1.7 7.0 0.00 0.00 0.00 54 1015.3
20260830060016 87 158 3.5 8.7 0.00 0.00 0.00 53 1015.5
20260830055016 87 158 3.5 10.4 0.00 0.00 0.00 52 1015.5
20260830054016 87 158 3.5 7.8 0.00 0.00 0.00 52 1015.4
20260830053016 87 158 4.3 9.6 0.00 0.00 0.00 52 1015.3
20260830052017 87 180 3.5 7.0 0.00 0.00 0.00 51 1015.3
20260830051016 87 158 4.3 8.7 0.00 0.00 0.00 50 1015.2
20260830050016 87 158 4.3 9.6 0.00 0.00 0.00 50 1015.3
20260830045016 87 158 3.5 8.7 0.00 0.00 0.00 49 1015.3
20260830044036 88 158 2.6 7.8 0.00 0.00 0.00 49 1015.3
20260830043036 87 135 3.5 8.7 0.00 0.00 0.00 49 1015.3